Weather History for Rochester, NY

Change the Weather History Date:

Sunday, March 9, 2014

  Actual Average Record
Temperature  
Mean Temperature 29 °F 32 °F  
Max Temperature 37 °F 40 °F 73 °F (2000)
Min Temperature 20 °F 23 °F -3 °F (1943)
Degree Days  
Heating Degree Days 36 33  
Month to date heating degree days 416 311  
Since 1 July heating degree days 5501 5097  
Cooling Degree Days 0 0  
Month to date cooling degree days 0 0  
Year to date cooling degree days 0 0  
Moisture  
Dew Point 14 °F    
Average Humidity 58    
Maximum Humidity 74    
Minimum Humidity 41    
Precipitation  
Precipitation 0.00 in 0.08 in 1.20 in (1891)
Month to date precipitation 0.12 0.70  
Year to date precipitation 3.74 5.06  
Snow  
Snow 0.00 in 0.70 in 9.80 in (1884)
Month to date snowfall 3.3 6.3  
Since 1 July snowfall 86.4 85.2  
Snow Depth 0.00 in    
Sea Level Pressure  
Sea Level Pressure 30.05 in    
Wind  
Wind Speed 14 mph (West)    
Max Wind Speed 24 mph    
Max Gust Speed 30 mph    
Visibility 10 miles    
Events      
T = Trace of Precipitation, MM = Missing Value Source: NWS Daily Summary

Daily Weather History Graph

Daily Weather History Graph

Search for Another Location

Airport:

Trip Planner

Search our weather history database for the weather conditions in past years. The results will help you decide how hot, cold, wet, or windy it might be!

Date:

Astronomy

Mar. 09, 2014 Rise Set
Actual Time 7:33 AM EDT 7:09 PM EDT
Civil Twilight 7:04 AM EDT 7:38 PM EDT
Nautical Twilight 6:32 AM EDT 8:11 PM EDT
Astronomical Twilight 5:58 AM EDT 8:44 PM EDT
Moon 12:54 PM EDT (3/9) 3:04 AM EDT (3/9)
Length of Visible Light 12h 33m
Length of Day
11h 36m
First Quarter, 61% of the Moon is Illuminated
Mar 9
First Quarter
Mar 16
Full
Mar 23
Last Quarter
Mar 30
New
Apr 7
First Quarter

Hourly Weather History & Observations

Time (EDT) Temp. Windchill Dew Point Humidity Pressure Visibility Wind Dir Wind Speed Gust Speed Precip Events Conditions
12:54 AM 27.0 °F 16.1 °F 18.0 °F 69% 30.05 in 10.0 mi West 12.7 mph 21.9 mph N/A   Overcast
1:54 AM 25.0 °F 13.1 °F 16.0 °F 69% 30.05 in 10.0 mi WNW 13.8 mph - N/A   Mostly Cloudy
3:54 AM 24.1 °F 14.4 °F 15.1 °F 69% 30.06 in 10.0 mi WNW 9.2 mph - N/A   Scattered Clouds
4:54 AM 23.0 °F 13.1 °F 15.1 °F 72% 30.07 in 10.0 mi West 9.2 mph - N/A   Clear
5:54 AM 21.0 °F 11.4 °F 14.0 °F 74% 30.09 in 10.0 mi West 8.1 mph - N/A   Partly Cloudy
6:54 AM 21.0 °F 11.4 °F 12.9 °F 71% 30.11 in 10.0 mi West 8.1 mph - N/A   Scattered Clouds
7:33 AM 21.2 °F 10.9 °F 12.2 °F 68% 30.09 in 10.0 mi West 9.2 mph - N/A   Mostly Cloudy
7:54 AM 19.9 °F 8.6 °F 12.9 °F 74% 30.14 in 10.0 mi West 10.4 mph - N/A   Mostly Cloudy
8:10 AM 19.4 °F 9.5 °F 12.2 °F 74% 30.11 in 10.0 mi West 8.1 mph - N/A   Scattered Clouds
8:54 AM 21.9 °F 11.0 °F 14.0 °F 72% 30.15 in 10.0 mi West 10.4 mph - N/A   Scattered Clouds
9:54 AM 24.1 °F 13.1 °F 15.1 °F 69% 30.16 in 10.0 mi West 11.5 mph - N/A   Scattered Clouds
10:54 AM 25.0 °F 13.6 °F 15.1 °F 66% 30.17 in 10.0 mi West 12.7 mph - N/A   Scattered Clouds
11:50 AM 24.8 °F 14.0 °F 15.8 °F 69% 30.12 in 10.0 mi West 11.5 mph - N/A   Mostly Cloudy
11:54 AM 25.0 °F 13.6 °F 15.1 °F 66% 30.16 in 10.0 mi West 12.7 mph - N/A   Mostly Cloudy
12:31 PM 26.6 °F 14.3 °F 12.2 °F 55% 30.12 in 10.0 mi West 16.1 mph 23.0 mph N/A   Partly Cloudy
12:54 PM 28.0 °F 15.7 °F 15.1 °F 58% 30.15 in 10.0 mi WSW 17.3 mph 23.0 mph N/A   Mostly Cloudy
1:54 PM 27.0 °F 15.2 °F 15.1 °F 61% 30.12 in 10.0 mi West 15.0 mph - N/A   Mostly Cloudy
2:54 PM 28.9 °F 15.8 °F 15.1 °F 56% 30.09 in 10.0 mi West 20.7 mph - N/A   Mostly Cloudy
3:54 PM 30.9 °F 18.7 °F 15.1 °F 52% 30.06 in 10.0 mi West 19.6 mph 25.3 mph N/A   Mostly Cloudy
4:54 PM 30.9 °F 18.4 °F 15.1 °F 52% 30.04 in 10.0 mi WSW 20.7 mph 27.6 mph N/A   Mostly Cloudy
5:54 PM 30.9 °F 19.8 °F 14.0 °F 50% 30.01 in 10.0 mi West 16.1 mph - N/A   Mostly Cloudy
6:54 PM 30.9 °F 20.2 °F 12.0 °F 46% 30.00 in 10.0 mi West 15.0 mph - N/A   Overcast
7:54 PM 30.0 °F 19.1 °F 10.9 °F 45% 29.98 in 10.0 mi WSW 15.0 mph 19.6 mph N/A   Overcast
8:54 PM 30.9 °F 23.5 °F 12.0 °F 46% 29.94 in 10.0 mi WSW 8.1 mph - N/A   Overcast
9:54 PM 33.1 °F 21.2 °F 12.9 °F 43% 29.90 in 10.0 mi SW 20.7 mph 28.8 mph N/A   Overcast
10:54 PM 34.0 °F 24.6 °F 12.0 °F 40% 29.83 in 10.0 mi SW 13.8 mph - N/A   Mostly Cloudy
11:54 PM 34.0 °F 25.0 °F 15.1 °F 46% 29.80 in 10.0 mi SW 12.7 mph - N/A   Mostly Cloudy
12:54 AM 37.0 °F 28.5 °F 16.0 °F 42% 29.83 in 10.0 mi West 13.8 mph - N/A   Overcast